TimeEDT,TemperatureF,Dew PointF,Humidity,Sea Level PressureIn,VisibilityMPH,Wind Direction,Wind SpeedMPH,Gust SpeedMPH,PrecipitationIn,Events,Conditions,WindDirDegrees,DateUTC
12:53 AM,50.0,48.0,93,29.92,8.0,Calm,Calm,-,N/A,,Clear,0,2013-10-03 04:53:00
1:53 AM,48.9,46.9,93,29.94,10.0,Calm,Calm,-,N/A,,Clear,0,2013-10-03 05:53:00
2:53 AM,48.9,46.9,93,29.94,8.0,Calm,Calm,-,0.01,,Clear,0,2013-10-03 06:53:00
3:53 AM,46.9,45.0,93,29.96,10.0,Calm,Calm,-,N/A,,Clear,0,2013-10-03 07:53:00
4:53 AM,46.0,44.1,93,29.98,7.0,Calm,Calm,-,N/A,,Clear,0,2013-10-03 08:53:00
5:53 AM,45.0,43.0,93,30.01,9.0,Calm,Calm,-,N/A,,Clear,0,2013-10-03 09:53:00
6:53 AM,45.0,43.0,93,30.02,10.0,Calm,Calm,-,N/A,,Clear,0,2013-10-03 10:53:00
7:53 AM,52.0,48.9,89,30.05,10.0,Calm,Calm,-,N/A,,Clear,0,2013-10-03 11:53:00
8:53 AM,63.0,52.0,67,30.07,10.0,WNW,3.5,-,N/A,,Clear,290,2013-10-03 12:53:00
9:53 AM,69.1,46.9,45,30.06,10.0,West,5.8,-,N/A,,Clear,260,2013-10-03 13:53:00
10:53 AM,71.1,46.0,41,30.06,10.0,Variable,6.9,-,N/A,,Clear,0,2013-10-03 14:53:00
11:53 AM,73.0,46.0,38,30.05,10.0,Calm,Calm,-,N/A,,Clear,0,2013-10-03 15:53:00
12:53 PM,73.9,45.0,35,30.03,10.0,Variable,4.6,-,N/A,,Clear,0,2013-10-03 16:53:00
1:53 PM,73.9,46.0,37,30.01,10.0,Variable,4.6,-,N/A,,Clear,0,2013-10-03 17:53:00
2:53 PM,73.9,48.9,41,30.01,10.0,SW,8.1,-,N/A,,Clear,220,2013-10-03 18:53:00
3:53 PM,72.0,45.0,38,30.00,10.0,SW,8.1,-,N/A,,Clear,220,2013-10-03 19:53:00
4:53 PM,70.0,44.1,39,30.01,10.0,WSW,5.8,-,N/A,,Clear,240,2013-10-03 20:53:00
5:53 PM,64.0,46.0,52,30.01,10.0,Calm,Calm,-,N/A,,Clear,0,2013-10-03 21:53:00
6:53 PM,59.0,50.0,72,30.03,10.0,Calm,Calm,-,N/A,,Clear,0,2013-10-03 22:53:00
7:53 PM,57.0,48.9,74,30.04,10.0,Calm,Calm,-,N/A,,Clear,0,2013-10-03 23:53:00
8:53 PM,54.0,48.9,83,30.05,10.0,Calm,Calm,-,N/A,,Clear,0,2013-10-04 00:53:00
9:53 PM,51.1,48.0,89,30.06,10.0,Calm,Calm,-,N/A,,Clear,0,2013-10-04 01:53:00
10:53 PM,48.9,46.0,90,30.07,10.0,Calm,Calm,-,N/A,,Clear,0,2013-10-04 02:53:00